Regional Weather Roundup
Issued by NWS

Home | Current Version | Previous Version | Graphics & Text | Print | Product List | Glossary On
Versions: 1 2 3 4 5 6 7 8 9 10 11 12 13 14 15 16 17 18 19 20 21 22 23 24 25 26 27 28 29 30 31 32 33 34 35 36 37 38 39 40 41 42 43 44 45 46 47 48 49 50
000
ASUS43 KIND 281059
RWRIN

WEATHER ROUNDUP FOR INDIANA
NATIONAL WEATHER SERVICE INDIANAPOLIS IN
700 AM EDT FRI AUG 28 2015

NOTE: "FAIR" INDICATES FEW OR NO CLOUDS BELOW 12,000 FEET WITH NO
SIGNIFICANT WEATHER AND/OR OBSTRUCTIONS TO VISIBILITY.

* - STATION DOES NOT REPORT WEATHER SUCH AS PRECIPITATION OR FOG.

+ - STATION NOT QUALITY CONTROLLED BY THE NATIONAL WEATHER SERVICE.
    USE DATA WITH CAUTION...ESPECIALLY DEWPOINT AND RELATIVE
    HUMIDITY OBSERVATIONS.

INZ001>003-010>013-019-020-281200-
NORTHWEST INDIANA

CITY           SKY/WX    TMP DP  RH WIND       PRES   REMARKS
GARY /AIRPORT/ PTCLDY    59  55  88 SE5       30.13R
KNOX *+        CLEAR     54  54 100 SE5       30.13S
MONTICELLO +   CLEAR     58  57  97 SE3       30.14S
RENSSELAER +   CLEAR     54  54 100 E3        30.14R

$$

LMZ046-743>745-281200-
SOUTHERN LAKE MICHIGAN

STATION/POSITION TIME  TEMP    WIND        PRES    WAVE
                       AIR SEA DIR/SP/G            HT
                 (UTC) (F)     (DEG/KT/KT) (MB)    (FT)
BURNS HARBOR     1000   62     150/ 11/ 15 1020.3S
MICHIGAN CITY    1000   60     120/  8/ 10   N/A
5NW MICH CITY    1000   63 71  170/ 12/ 14   N/A     1

$$

INZ004-005-014>016-021>024-281200-
NORTH CENTRAL INDIANA

CITY           SKY/WX    TMP DP  RH WIND       PRES   REMARKS
ELKHART        CLOUDY    54  54 100 CALM      30.16  FOG
GOSHEN         CLEAR     56  54  93 SE7       30.15F
SOUTH BEND     CLEAR     55  53  93 E3        30.16S

$$

INZ006>009-017-018-025>027-281200-
NORTHEAST INDIANA

CITY           SKY/WX    TMP DP  RH WIND       PRES   REMARKS
ANGOLA *+      PTCLDY    55  54  94 SE3       30.18S
FORT WAYNE     PTCLDY    55  53  93 E5        30.18S FOG

$$

INZ028-029-035-036-043>045-051>053-281200-
WEST CENTRAL INDIANA

CITY           SKY/WX    TMP DP  RH WIND       PRES   REMARKS
CRAWFORDSVL +  CLEAR     51  51 100 CALM      30.16R
GREENCASTLE +  CLEAR     54  50  87 CALM      30.16S
LAFAYETTE      CLEAR     57  55  93 CALM      30.14R
TERRE HAUTE    CLEAR     56  55  97 CALM      30.15R

$$

INZ030>032-037>040-046>048-054>057-064-065-281200-
CENTRAL INDIANA

CITY           SKY/WX    TMP DP  RH WIND       PRES   REMARKS
FRANKFORT +    FAIR     N/A N/A N/A SE5       30.17S HAZE
GREENWOOD *+   CLEAR     55  52  88 CALM      30.17S
INDIANAPOLIS   PTCLDY    60  56  86 E3        30.15R
-EAGLE CREEK   CLEAR     59  56  89 CALM      30.16R
KOKOMO *+      CLEAR     54  50  87 SE6       30.16F
MT COMFORT *+  CLEAR     52 N/A N/A CALM      30.17S
SHELBYVILLE    CLEAR     54  51  90 E5        30.16S

$$

INZ033-034-041-042-049-050-058-059-281200-
EAST CENTRAL INDIANA

CITY           SKY/WX    TMP DP  RH WIND       PRES   REMARKS
MUNCIE         PTCLDY    55  54  96 CALM      30.18S

$$

INZ060-061-067>069-081>083-085>088-281200-
SOUTHWEST INDIANA

CITY           SKY/WX    TMP DP  RH WIND       PRES   REMARKS
EVANSVILLE     CLEAR     58  57  97 CALM      30.14S FOG
HUNTINGBURG *+ CLEAR     55  52  88 NE3       30.15S

$$

INZ062-063-066-070>080-084-089>092-281200-
SOUTH CENTRAL AND SOUTHEAST INDIANA

CITY           SKY/WX    TMP DP  RH WIND       PRES   REMARKS
BLOOMINGTON    CLEAR     52  51  97 CALM      30.16R
MADISON *+     CLEAR     52  50  93 CALM      30.19S
SEYMOUR +      FOG       50  50 100 CALM      30.17R VSB 1/4

$$




USA.gov is the U.S. government's official web portal to all federal, state and local government web resources and services.